Location: Worth Mountain WMA
(34.9569°N, 81.4819°W)
Time: 02:54:24
(UTC-05:00)

Resurs 01 Rocket - Pass Details

Date: 18 August 2017
Orbit: 636 x 643 km, 98.1° (Epoch: 20 November)

Event Time Altitude Azimuth Distance (km) Brightness Sun altitude
Exits shadow 21:51:04 - 196° (SSW) 2,918 4.9 -19.6°
Reaches altitude 10° 21:53:34 10° 210° (SSW) 2,030 4.2 -20.1°
Maximum altitude 21:57:09 24° 264° (W) 1,335 3.8 -20.7°
Drops below altitude 10° 22:00:45 10° 318° (NW) 2,043 5.3 -21.3°
Sets 22:03:20 0° 332° (NNW) 2,957 6.1 -21.7°
